Regional Weather Roundup
Issued by NWS Bismarck, ND

Home | Current Version | Previous Version | Text Only | Print | Product List | Glossary On
Versions: 1 2 3 4 5 6 7 8 9 10 11 12 13 14 15 16 17 18 19 20 21 22 23 24 25 26 27 28 29 30 31 32 33 34 35 36 37 38 39 40 41 42 43 44 45 46 47 48 49 50
000
ASUS43 KBIS 290702
RWRBIS

NWR BROADCAST TEXT
NATIONAL WEATHER SERVICE BISMARCK ND
200 AM CDT MON AUG 29 2016

NOTE: "FAIR" INDICATES FEW OR NO CLOUDS BELOW 12,000 FEET WITH NO
SIGNIFICANT WEATHER AND/OR OBSTRUCTIONS TO VISIBILITY.


CITY           SKY/WX    TMP DP  RH WIND       PRES   REMARKS
WILLISTON      CLOUDY    63  48  58 N10       30.17R
MINOT          CLEAR     63  54  72 NW12      30.10R
MINOT AFB      CLEAR     57  52  84 NW9       30.10R
BISMARCK       PTCLDY    72  53  51 N10       30.06R
DICKINSON      CLOUDY    65  48  54 N9        30.12R
GARRISON         N/A     64  55  72 N5        30.09R
HETTINGER ARPT CLEAR     69  50  50 NE18      30.11R
JAMESTOWN      CLEAR     67  64  90 N3        30.01R
CARRINGTON     FAIR      64  63  94 W7        30.05R
HAZEN          FAIR      63  54  72 SE3       30.11R
OAKES            N/A    N/A N/A N/A MISG        N/A
STANLEY        FAIR      61  50  67 N20       30.16S
$$

CITY           SKY/WX    TMP DP  RH WIND       PRES   REMARKS
GRAND FORKS    CLOUDY    66  61  84 CALM      29.97S
GRAND FORKS AF CLOUDY    64  62  93 SW1       29.98F
DEVILS LAKE    CLOUDY    69  66  90 N10       30.04R
FARGO          CLOUDY    74  68  81 E9        29.99S
CAVALIER       PTSUNNY   66  64  94 W6        29.97R
GRAFTON        PTSUNNY   70  63  78 E12       30.01F
GWINNER        FAIR      75  70  83 SW16      29.99S
LANGDON        FAIR      64  61  88 NW12      30.05R
ROLLA          FAIR      63  57  82 NW10      30.08R
$$

CITY           SKY/WX    TMP DP  RH WIND       PRES   REMARKS
ABERDEEN       CLEAR     72  67  84 S10       30.01R
MOBRIDGE       CLEAR     68  60  75 NW6       29.98R
BUFFALO          N/A     63  49  60 NE16      30.06S
RAPID CITY     CLEAR     58  50  75 NW7       30.08R
GLASGOW        CLEAR     59  44  57 NE8       30.20R
SIDNEY         MOCLDY    64  50  60 N9        30.16R
WOLF POINT     CLEAR     63  47  55 NE8       30.19R
GLENDIVE       CLOUDY    69  49  48 NE13      30.17R
MILES CITY     CLOUDY    67  47  48 NE7       30.15R
BAKER          CLOUDY    68  48  48 E10       30.16R
$$

CITY           SKY/WX    TMP DP  RH WIND       PRES   REMARKS
BILLINGS       CLOUDY    70  45  40 N10       30.20R
GREAT FALLS    CLOUDY    57  44  62 E3        30.24R
$$





USA.gov is the U.S. government's official web portal to all federal, state and local government web resources and services.